User: anonymous   Login
Location: Niedergestelen
(46.3129°N, 7.7822°E)
Time: 23:57:39
(UTC+00:00)
Language:

Cosmos 2297 - Orbit

View from above orbital plane
View from above orbital plane
View from above satellite
View from above satellite

Ground track
Ground track

The orbit data is extracted from the following two-line orbital elements,

1 23404U 94077A   21061.47075792 -.00000295  00000-0 -13130-3 0  9990
2 23404  71.0160 337.9334 0018285 254.1797 105.7309 14.13535999355446
Epoch (UTC): 02 March 2021 11:17:53
Eccentricity: 0.0018285
inclination: 71.0160°
perigee height: 834 km
apogee height: 860 km
right ascension of ascending node: 337.9334°
argument of perigee: 254.1797°
revolutions per day: 14.13535999
mean anomaly at epoch: 105.7309°
orbit number at epoch: 35544

The dashed part of the orbit path shows where the satellite is in the earth's shadow,  

DLR